Time,TemperatureF,DewpointF,PressureIn,WindDirection,WindDirectionDegrees,WindSpeedMPH,WindSpeedGustMPH,Humidity,HourlyPrecipIn,Conditions,Clouds,dailyrainin,SoftwareType,DateUTC
2013-02-01 00:04:00,46.0,32.5,29.82,WNW,292,0.2,3.5,59,0.00,CLR,SKC,0.00,WeatherDisplay:10.37,2013-01-31 23:04:00,
2013-02-01 00:09:00,46.9,32.9,29.81,NNW,338,3.7,3.7,58,0.00,CLR,SKC,0.00,WeatherDisplay:10.37,2013-01-31 23:09:00,
2013-02-01 00:14:00,47.8,32.9,29.82,WNW,292,3.4,3.5,56,0.00,CLR,SKC,0.00,WeatherDisplay:10.37,2013-01-31 23:14:00,
2013-02-01 00:19:00,48.4,34.3,29.81,WNW,292,3.6,10.4,58,0.00,CLR,SKC,0.00,WeatherDisplay:10.37,2013-01-31 23:19:00,
2013-02-01 00:24:00,48.7,34.6,29.81,NNW,338,5.9,10.4,58,0.00,CLR,SKC,0.00,WeatherDisplay:10.37,2013-01-31 23:24:00,
2013-02-01 00:29:00,48.7,34.2,29.81,East,90,2.6,4.6,57,0.00,CLR,SKC,0.00,WeatherDisplay:10.37,2013-01-31 23:29:00,
2013-02-01 00:34:00,48.7,33.7,29.81,WNW,292,3.4,3.5,56,0.00,CLR,SKC,0.00,WeatherDisplay:10.37,2013-01-31 23:34:00,
2013-02-01 00:39:00,48.4,33.4,29.81,WNW,292,2.0,5.8,56,0.00,CLR,SKC,0.00,WeatherDisplay:10.37,2013-01-31 23:39:00,
2013-02-01 00:44:00,47.8,33.3,29.81,NW,315,0.9,1.1,57,0.00,CLR,SKC,0.00,WeatherDisplay:10.37,2013-01-31 23:44:00,
2013-02-01 00:49:00,47.5,33.0,29.81,NNW,338,3.7,3.7,57,0.00,CLR,SKC,0.00,WeatherDisplay:10.37,2013-01-31 23:49:00,
2013-02-01 00:54:00,46.2,32.7,29.81,WNW,292,3.9,5.6,59,0.00,CLR,SKC,0.00,WeatherDisplay:10.37,2013-01-31 23:54:00,
2013-02-01 00:59:00,46.6,33.0,29.81,NW,315,0.0,0.0,59,0.00,CLR,SKC,0.00,WeatherDisplay:10.37,2013-01-31 23:59:00,
2013-02-01 01:04:00,46.4,32.8,29.80,WNW,292,1.5,1.6,59,0.00,CLR,SKC,0.00,WeatherDisplay:10.37,2013-02-01 00:04:00,
2013-02-01 01:09:00,46.2,33.1,29.81,NW,315,1.4,1.4,60,0.00,CLR,SKC,0.00,WeatherDisplay:10.37,2013-02-01 00:09:00,
2013-02-01 01:14:00,46.2,33.1,29.81,NNW,338,3.8,3.8,60,0.00,CLR,SKC,0.00,WeatherDisplay:10.37,2013-02-01 00:14:00,
2013-02-01 01:19:00,46.6,33.8,29.80,NW,315,5.6,5.8,61,0.00,CLR,SKC,0.00,WeatherDisplay:10.37,2013-02-01 00:19:00,
2013-02-01 01:24:00,46.6,33.8,29.80,West,270,0.9,1.1,61,0.00,CLR,SKC,0.00,WeatherDisplay:10.37,2013-02-01 00:24:00,
2013-02-01 01:29:00,46.8,34.0,29.80,West,270,2.2,2.3,61,0.00,CLR,SKC,0.00,WeatherDisplay:10.37,2013-02-01 00:29:00,
2013-02-01 01:34:00,46.8,34.0,29.80,WNW,292,1.1,3.6,61,0.00,CLR,SKC,0.00,WeatherDisplay:10.37,2013-02-01 00:34:00,
2013-02-01 01:39:00,46.0,33.3,29.80,West,270,0.7,1.1,61,0.00,CLR,SKC,0.00,WeatherDisplay:10.37,2013-02-01 00:39:00,
2013-02-01 01:44:00,45.7,33.4,29.81,West,270,1.6,1.6,62,0.00,CLR,SKC,0.00,WeatherDisplay:10.37,2013-02-01 00:44:00,
2013-02-01 01:49:00,45.5,33.2,29.81,WNW,292,0.9,1.1,62,0.00,CLR,SKC,0.00,WeatherDisplay:10.37,2013-02-01 00:49:00,
2013-02-01 01:54:00,45.1,33.3,29.80,West,270,0.6,1.1,63,0.00,CLR,SKC,0.00,WeatherDisplay:10.37,2013-02-01 00:54:00,
2013-02-01 01:59:00,44.8,32.9,29.80,WNW,292,1.8,2.3,63,0.00,CLR,SKC,0.00,WeatherDisplay:10.37,2013-02-01 00:59:00,
2013-02-01 02:04:00,44.6,32.8,29.80,West,270,2.0,3.5,63,0.00,CLR,SKC,0.00,WeatherDisplay:10.37,2013-02-01 01:04:00,
2013-02-01 02:09:00,44.2,32.8,29.81,WSW,248,1.6,1.6,64,0.00,CLR,SKC,0.00,WeatherDisplay:10.37,2013-02-01 01:09:00,
2013-02-01 02:14:00,43.7,32.7,29.81,West,270,0.9,1.3,65,0.00,CLR,SKC,0.00,WeatherDisplay:10.37,2013-02-01 01:14:00,
2013-02-01 02:19:00,42.6,32.0,29.81,WNW,292,0.5,1.1,66,0.00,CLR,SKC,0.00,WeatherDisplay:10.37,2013-02-01 01:19:00,
2013-02-01 02:24:00,41.9,31.7,29.81,West,270,0.7,1.1,67,0.00,CLR,SKC,0.00,WeatherDisplay:10.37,2013-02-01 01:24:00,
2013-02-01 02:29:00,41.9,31.7,29.81,West,270,0.7,1.1,67,0.00,CLR,SKC,0.00,WeatherDisplay:10.37,2013-02-01 01:29:00,
2013-02-01 02:34:00,41.2,31.8,29.79,West,270,1.1,1.1,69,0.00,CLR,SKC,0.00,WeatherDisplay:10.37,2013-02-01 01:34:00,
2013-02-01 02:39:00,41.0,32.0,29.80,WSW,248,1.6,2.5,70,0.00,CLR,SKC,0.00,WeatherDisplay:10.37,2013-02-01 01:39:00,
2013-02-01 02:44:00,41.7,32.3,29.80,WNW,292,3.1,4.6,69,0.00,CLR,SKC,0.00,WeatherDisplay:10.37,2013-02-01 01:44:00,
2013-02-01 02:49:00,42.1,32.6,29.79,NW,315,2.8,3.5,69,0.00,CLR,SKC,0.00,WeatherDisplay:10.37,2013-02-01 01:49:00,
2013-02-01 02:54:00,42.6,32.8,29.79,NW,315,1.8,7.6,68,0.00,CLR,SKC,0.00,WeatherDisplay:10.37,2013-02-01 01:54:00,
2013-02-01 02:59:00,43.3,33.5,29.79,West,270,7.0,8.1,68,0.00,CLR,SKC,0.00,WeatherDisplay:10.37,2013-02-01 01:59:00,
2013-02-01 03:04:00,43.3,33.1,29.80,WNW,292,1.1,1.1,67,0.00,CLR,SKC,0.00,WeatherDisplay:10.37,2013-02-01 02:04:00,
2013-02-01 03:09:00,43.9,33.3,29.80,ENE,68,1.2,1.2,66,0.00,CLR,SKC,0.00,WeatherDisplay:10.37,2013-02-01 02:09:00,
2013-02-01 03:14:00,43.9,33.3,29.80,SSE,158,0.9,1.1,66,0.00,CLR,SKC,0.00,WeatherDisplay:10.37,2013-02-01 02:14:00,
2013-02-01 03:19:00,43.5,32.9,29.79,East,90,0.0,0.0,66,0.00,CLR,SKC,0.00,WeatherDisplay:10.37,2013-02-01 02:19:00,
2013-02-01 03:24:00,43.5,33.3,29.80,North,0,3.4,3.5,67,0.00,CLR,SKC,0.00,WeatherDisplay:10.37,2013-02-01 02:24:00,
2013-02-01 03:29:00,43.7,33.5,29.80,East,90,0.8,2.5,67,0.00,CLR,SKC,0.00,WeatherDisplay:10.37,2013-02-01 02:29:00,
2013-02-01 03:34:00,44.2,34.0,29.81,North,0,1.9,5.8,67,0.00,CLR,SKC,0.00,WeatherDisplay:10.37,2013-02-01 02:34:00,
2013-02-01 03:39:00,44.2,34.0,29.81,NW,315,1.4,3.5,67,0.00,CLR,SKC,0.00,WeatherDisplay:10.37,2013-02-01 02:39:00,
2013-02-01 03:44:00,44.2,34.0,29.81,NE,45,0.0,0.0,67,0.00,CLR,SKC,0.00,WeatherDisplay:10.37,2013-02-01 02:44:00,
2013-02-01 03:49:00,43.9,33.6,29.82,NW,315,2.7,6.3,67,0.00,CLR,SKC,0.00,WeatherDisplay:10.37,2013-02-01 02:49:00,
2013-02-01 03:54:00,44.1,33.8,29.81,NNW,338,2.2,2.3,67,0.00,CLR,SKC,0.00,WeatherDisplay:10.37,2013-02-01 02:54:00,
2013-02-01 03:59:00,44.2,34.0,29.82,NW,315,8.0,8.1,67,0.00,CLR,SKC,0.00,WeatherDisplay:10.37,2013-02-01 02:59:00,
2013-02-01 04:04:00,44.2,34.0,29.81,North,0,2.7,4.6,67,0.00,CLR,SKC,0.00,WeatherDisplay:10.37,2013-02-01 03:04:00,
2013-02-01 04:09:00,44.2,33.6,29.82,NNE,22,6.3,6.3,66,0.00,CLR,SKC,0.00,WeatherDisplay:10.37,2013-02-01 03:09:00,
2013-02-01 04:14:00,44.2,34.0,29.82,NW,315,10.3,11.5,67,0.00,CLR,SKC,0.00,WeatherDisplay:10.37,2013-02-01 03:14:00,
2013-02-01 04:19:00,44.1,33.8,29.81,WNW,292,8.5,8.5,67,0.00,CLR,SKC,0.00,WeatherDisplay:10.37,2013-02-01 03:19:00,
2013-02-01 04:24:00,43.5,33.7,29.82,NNW,338,5.2,10.9,68,0.00,CLR,SKC,0.00,WeatherDisplay:10.37,2013-02-01 03:24:00,
2013-02-01 04:29:00,43.3,33.5,29.82,NNW,338,3.6,10.4,68,0.00,CLR,SKC,0.00,WeatherDisplay:10.37,2013-02-01 03:29:00,
2013-02-01 04:34:00,43.3,33.5,29.81,NNE,22,3.8,3.8,68,0.00,CLR,SKC,0.00,WeatherDisplay:10.37,2013-02-01 03:34:00,
2013-02-01 04:39:00,43.0,33.5,29.82,NNW,338,5.6,5.8,69,0.00,CLR,SKC,0.00,WeatherDisplay:10.37,2013-02-01 03:39:00,
2013-02-01 04:44:00,42.8,33.7,29.82,North,0,5.4,5.8,70,0.00,CLR,SKC,0.00,WeatherDisplay:10.37,2013-02-01 03:44:00,
2013-02-01 04:49:00,42.6,33.5,29.82,North,0,3.4,5.8,70,0.00,CLR,SKC,0.00,WeatherDisplay:10.37,2013-02-01 03:49:00,
2013-02-01 04:54:00,42.4,33.7,29.82,WNW,292,6.1,8.1,71,0.00,CLR,SKC,0.00,WeatherDisplay:10.37,2013-02-01 03:54:00,
2013-02-01 04:59:00,42.4,33.7,29.83,NW,315,9.6,9.6,71,0.00,CLR,SKC,0.00,WeatherDisplay:10.37,2013-02-01 03:59:00,
2013-02-01 05:04:00,42.1,33.4,29.83,WNW,292,9.2,9.2,71,0.00,CLR,SKC,0.00,WeatherDisplay:10.37,2013-02-01 04:04:00,
2013-02-01 05:09:00,42.1,33.4,29.82,WNW,292,9.2,9.2,71,0.00,CLR,SKC,0.00,WeatherDisplay:10.37,2013-02-01 04:09:00,
2013-02-01 05:14:00,41.7,33.4,29.83,NW,315,5.0,5.8,72,0.00,CLR,SKC,0.00,WeatherDisplay:10.37,2013-02-01 04:14:00,
2013-02-01 05:19:00,41.5,33.5,29.83,North,0,2.0,2.3,73,0.00,CLR,SKC,0.00,WeatherDisplay:10.37,2013-02-01 04:19:00,
2013-02-01 05:24:00,41.5,33.5,29.83,North,0,5.7,6.9,73,0.00,CLR,SKC,0.00,WeatherDisplay:10.37,2013-02-01 04:24:00,
2013-02-01 05:29:00,41.5,33.5,29.83,North,0,9.1,9.2,73,0.00,CLR,SKC,0.00,WeatherDisplay:10.37,2013-02-01 04:29:00,
2013-02-01 05:34:00,41.7,33.7,29.82,NW,315,6.0,6.0,73,0.00,CLR,SKC,0.00,WeatherDisplay:10.37,2013-02-01 04:34:00,
2013-02-01 05:39:00,41.5,33.5,29.82,NW,315,0.0,0.0,73,0.00,CLR,SKC,0.00,WeatherDisplay:10.37,2013-02-01 04:39:00,
2013-02-01 05:44:00,41.5,33.5,29.82,NNW,338,2.3,4.6,73,0.00,CLR,SKC,0.00,WeatherDisplay:10.37,2013-02-01 04:44:00,
2013-02-01 05:49:00,41.5,33.5,29.82,North,0,0.0,1.1,73,0.00,CLR,SKC,0.00,WeatherDisplay:10.37,2013-02-01 04:49:00,
2013-02-01 05:54:00,41.2,33.5,29.83,NNW,338,1.2,2.3,74,0.00,CLR,SKC,0.00,WeatherDisplay:10.37,2013-02-01 04:54:00,
2013-02-01 05:59:00,40.8,33.2,29.83,North,0,0.0,0.0,74,0.00,CLR,SKC,0.00,WeatherDisplay:10.37,2013-02-01 04:59:00,
2013-02-01 06:00:00,40.8,33.2,29.83,North,349,0.0,1.0,74,0.00,CLR,SKC,0.00,WeatherDisplay:10.37,2013-02-01 05:00:00,
2013-02-01 06:02:00,40.8,33.2,29.83,West,270,0.9,1.1,74,0.00,CLR,SKC,0.00,WeatherDisplay:10.37,2013-02-01 05:02:00,
2013-02-01 06:07:00,40.3,33.0,29.83,NE,45,1.1,1.1,75,0.00,CLR,SKC,0.00,WeatherDisplay:10.37,2013-02-01 05:07:00,
2013-02-01 06:12:00,40.3,33.0,29.82,North,0,0.0,0.0,75,0.00,CLR,SKC,0.00,WeatherDisplay:10.37,2013-02-01 05:12:00,
2013-02-01 06:17:00,40.3,33.0,29.82,North,0,0.0,0.0,75,0.00,CLR,SKC,0.00,WeatherDisplay:10.37,2013-02-01 05:17:00,
2013-02-01 06:22:00,40.1,33.1,29.82,NW,315,1.1,3.5,76,0.00,CLR,SKC,0.00,WeatherDisplay:10.37,2013-02-01 05:22:00,
2013-02-01 06:27:00,40.1,33.1,29.82,NNW,338,2.9,3.5,76,0.00,CLR,SKC,0.00,WeatherDisplay:10.37,2013-02-01 05:27:00,
2013-02-01 06:32:00,40.8,33.8,29.82,NNW,338,5.0,5.8,76,0.00,CLR,SKC,0.00,WeatherDisplay:10.37,2013-02-01 05:32:00,
2013-02-01 06:37:00,41.0,33.7,29.83,NNW,338,5.8,6.9,75,0.00,CLR,SKC,0.00,WeatherDisplay:10.37,2013-02-01 05:37:00,
2013-02-01 06:42:00,41.5,34.2,29.83,NNW,338,4.3,5.6,75,0.00,CLR,SKC,0.00,WeatherDisplay:10.37,2013-02-01 05:42:00,
2013-02-01 06:47:00,41.7,33.7,29.83,North,0,5.1,5.1,73,0.00,CLR,SKC,0.00,WeatherDisplay:10.37,2013-02-01 05:47:00,
2013-02-01 06:52:00,41.9,33.9,29.83,ENE,68,0.0,0.0,73,0.00,CLR,SKC,0.00,WeatherDisplay:10.37,2013-02-01 05:52:00,
2013-02-01 06:57:00,41.7,33.7,29.83,NW,315,1.1,1.1,73,0.00,CLR,SKC,0.00,WeatherDisplay:10.37,2013-02-01 05:57:00,
2013-02-01 07:02:00,41.5,33.5,29.83,NNW,338,2.5,2.5,73,0.00,CLR,SKC,0.00,WeatherDisplay:10.37,2013-02-01 06:02:00,
2013-02-01 07:07:00,41.5,33.5,29.83,North,0,2.4,3.5,73,0.00,CLR,SKC,0.00,WeatherDisplay:10.37,2013-02-01 06:07:00,
2013-02-01 07:12:00,41.4,33.4,29.83,NW,315,3.0,4.6,73,0.00,CLR,SKC,0.00,WeatherDisplay:10.37,2013-02-01 06:12:00,
2013-02-01 07:17:00,41.2,33.2,29.83,NNW,338,2.0,2.3,73,0.00,CLR,SKC,0.00,WeatherDisplay:10.37,2013-02-01 06:17:00,
2013-02-01 07:22:00,41.4,33.4,29.83,SW,225,2.0,3.5,73,0.00,CLR,SKC,0.00,WeatherDisplay:10.37,2013-02-01 06:22:00,
2013-02-01 07:27:00,41.4,33.4,29.83,NNW,338,0.7,1.1,73,0.00,CLR,SKC,0.00,WeatherDisplay:10.37,2013-02-01 06:27:00,
2013-02-01 07:32:00,41.2,33.2,29.83,NW,315,0.0,0.0,73,0.00,CLR,SKC,0.00,WeatherDisplay:10.37,2013-02-01 06:32:00,
2013-02-01 07:37:00,41.4,33.4,29.84,NNW,338,1.3,2.3,73,0.00,CLR,SKC,0.00,WeatherDisplay:10.37,2013-02-01 06:37:00,
2013-02-01 07:42:00,41.5,33.5,29.84,North,0,3.1,3.5,73,0.00,CLR,SKC,0.00,WeatherDisplay:10.37,2013-02-01 06:42:00,
2013-02-01 07:47:00,42.1,34.0,29.85,NNW,338,1.1,1.1,73,0.00,BKN,SKC,0.00,WeatherDisplay:10.37,2013-02-01 06:47:00,
2013-02-01 07:52:00,42.1,33.7,29.85,NNE,22,1.3,1.3,72,0.00,BKN,SKC,0.00,WeatherDisplay:10.37,2013-02-01 06:52:00,
2013-02-01 07:57:00,42.3,33.9,29.85,North,0,1.5,2.3,72,0.00,BKN,SKC,0.00,WeatherDisplay:10.37,2013-02-01 06:57:00,
2013-02-01 08:02:00,42.3,33.9,29.85,NW,315,2.9,4.2,72,0.00,BKN,SKC,0.00,WeatherDisplay:10.37,2013-02-01 07:02:00,
2013-02-01 08:07:00,42.4,34.0,29.85,WNW,292,3.6,3.6,72,0.00,BKN,SKC,0.00,WeatherDisplay:10.37,2013-02-01 07:07:00,
2013-02-01 08:12:00,42.6,33.9,29.85,NNW,338,0.9,1.1,71,0.00,BKN,SKC,0.00,WeatherDisplay:10.37,2013-02-01 07:12:00,
2013-02-01 08:17:00,42.6,34.2,29.85,NNE,22,0.0,0.0,72,0.00,BKN,SKC,0.00,WeatherDisplay:10.37,2013-02-01 07:17:00,
2013-02-01 08:22:00,42.6,34.2,29.85,NW,315,1.1,2.3,72,0.00,BKN,SKC,0.00,WeatherDisplay:10.37,2013-02-01 07:22:00,
2013-02-01 08:27:00,42.6,34.2,29.85,West,270,2.2,2.3,72,0.00,BKN,SKC,0.00,WeatherDisplay:10.37,2013-02-01 07:27:00,
2013-02-01 08:32:00,42.6,34.2,29.84,ESE,112,0.0,0.0,72,0.00,BKN,SKC,0.00,WeatherDisplay:10.37,2013-02-01 07:32:00,
2013-02-01 08:37:00,42.8,34.4,29.83,SSE,158,0.9,1.1,72,0.00,BKN,SKC,0.00,WeatherDisplay:10.37,2013-02-01 07:37:00,
2013-02-01 08:42:00,42.6,34.2,29.83,South,180,0.0,1.1,72,0.00,BKN,SKC,0.00,WeatherDisplay:10.37,2013-02-01 07:42:00,
2013-02-01 08:47:00,42.6,34.2,29.83,SE,135,0.0,0.0,72,0.00,BKN,SKC,0.00,WeatherDisplay:10.37,2013-02-01 07:47:00,
2013-02-01 08:52:00,43.0,34.6,29.83,ESE,112,1.6,1.6,72,0.00,BKN,SKC,0.00,WeatherDisplay:10.37,2013-02-01 07:52:00,
2013-02-01 08:57:00,43.7,35.3,29.82,East,90,0.0,0.0,72,0.00,BKN,SKC,0.00,WeatherDisplay:10.37,2013-02-01 07:57:00,
2013-02-01 09:02:00,43.7,34.9,29.82,East,90,3.4,3.5,71,0.00,BKN,SKC,0.00,WeatherDisplay:10.37,2013-02-01 08:02:00,
2013-02-01 09:07:00,44.6,35.8,29.83,SE,135,1.8,2.3,71,0.00,BKN,SKC,0.00,WeatherDisplay:10.37,2013-02-01 08:07:00,
2013-02-01 09:12:00,44.4,35.2,29.83,NNE,22,2.0,2.3,70,0.00,BKN,SKC,0.00,WeatherDisplay:10.37,2013-02-01 08:12:00,
2013-02-01 09:17:00,44.6,35.4,29.83,WNW,292,0.0,0.0,70,0.00,BKN,SKC,0.00,WeatherDisplay:10.37,2013-02-01 08:17:00,
2013-02-01 09:22:00,45.0,36.1,29.82,NW,315,1.3,2.3,71,0.00,BKN,SKC,0.00,WeatherDisplay:10.37,2013-02-01 08:22:00,
2013-02-01 09:27:00,44.8,35.9,29.82,West,270,2.0,2.3,71,0.00,BKN,SKC,0.00,WeatherDisplay:10.37,2013-02-01 08:27:00,
2013-02-01 09:32:00,44.8,35.9,29.83,NW,315,2.0,2.3,71,0.00,BKN,SKC,0.00,WeatherDisplay:10.37,2013-02-01 08:32:00,
2013-02-01 09:37:00,44.8,35.9,29.83,North,0,1.8,3.5,71,0.00,BKN,SKC,0.00,WeatherDisplay:10.37,2013-02-01 08:37:00,
2013-02-01 09:42:00,45.1,36.3,29.83,NNE,22,2.2,2.3,71,0.00,BKN,SKC,0.00,WeatherDisplay:10.37,2013-02-01 08:42:00,
2013-02-01 09:47:00,46.0,37.2,29.83,SE,135,0.7,1.1,71,0.00,CLR,SKC,0.00,WeatherDisplay:10.37,2013-02-01 08:47:00,
2013-02-01 09:52:00,46.6,37.0,29.83,NNW,338,5.9,6.9,69,0.00,CLR,SKC,0.00,WeatherDisplay:10.37,2013-02-01 08:52:00,
2013-02-01 09:57:00,46.6,37.3,29.83,North,0,4.5,4.6,70,0.00,CLR,SKC,0.00,WeatherDisplay:10.37,2013-02-01 08:57:00,
2013-02-01 10:02:00,46.8,37.1,29.83,NNE,22,0.0,1.1,69,0.00,CLR,SKC,0.00,WeatherDisplay:10.37,2013-02-01 09:02:00,
2013-02-01 10:07:00,46.9,37.3,29.83,ESE,112,0.0,0.0,69,0.00,CLR,SKC,0.00,WeatherDisplay:10.37,2013-02-01 09:07:00,
2013-02-01 10:12:00,47.5,37.4,29.82,WNW,292,3.1,3.5,68,0.00,CLR,SKC,0.00,WeatherDisplay:10.37,2013-02-01 09:12:00,
2013-02-01 10:17:00,47.5,37.4,29.82,ENE,68,8.0,8.1,68,0.00,CLR,SKC,0.00,WeatherDisplay:10.37,2013-02-01 09:17:00,
2013-02-01 10:22:00,47.8,37.4,29.83,West,270,0.9,1.1,67,0.00,CLR,SKC,0.00,WeatherDisplay:10.37,2013-02-01 09:22:00,
2013-02-01 10:27:00,47.8,37.4,29.83,ESE,112,1.3,1.3,67,0.00,CLR,SKC,0.00,WeatherDisplay:10.37,2013-02-01 09:27:00,
2013-02-01 10:32:00,48.2,37.8,29.81,NNE,22,4.9,4.9,67,0.00,CLR,SKC,0.00,WeatherDisplay:10.37,2013-02-01 09:32:00,
2013-02-01 10:37:00,48.2,37.4,29.82,NE,45,2.5,2.5,66,0.00,CLR,SKC,0.00,WeatherDisplay:10.37,2013-02-01 09:37:00,
2013-02-01 10:42:00,48.2,37.8,29.82,SW,225,4.9,5.8,67,0.00,CLR,SKC,0.00,WeatherDisplay:10.37,2013-02-01 09:42:00,
2013-02-01 10:47:00,48.4,37.5,29.82,WNW,292,1.5,3.5,66,0.00,CLR,SKC,0.00,WeatherDisplay:10.37,2013-02-01 09:47:00,
2013-02-01 10:52:00,48.4,37.5,29.82,SW,225,1.8,2.3,66,0.00,CLR,SKC,0.00,WeatherDisplay:10.37,2013-02-01 09:52:00,
2013-02-01 10:57:00,48.4,37.5,29.82,South,180,3.1,3.5,66,0.00,CLR,SKC,0.00,WeatherDisplay:10.37,2013-02-01 09:57:00,
2013-02-01 11:02:00,48.0,36.8,29.82,SSW,202,0.8,5.8,65,0.00,CLR,SKC,0.00,WeatherDisplay:10.37,2013-02-01 10:02:00,
2013-02-01 11:07:00,47.8,36.6,29.81,SSE,158,0.4,3.5,65,0.00,CLR,SKC,0.00,WeatherDisplay:10.37,2013-02-01 10:07:00,
2013-02-01 11:12:00,47.5,36.7,29.81,East,90,0.6,2.3,66,0.00,CLR,SKC,0.00,WeatherDisplay:10.37,2013-02-01 10:12:00,
2013-02-01 11:17:00,47.5,36.7,29.81,NNE,22,0.0,0.0,66,0.00,SCT,SKC,0.00,WeatherDisplay:10.37,2013-02-01 10:17:00,
2013-02-01 11:22:00,48.0,37.6,29.81,NW,315,2.5,3.5,67,0.00,SCT,SKC,0.00,WeatherDisplay:10.37,2013-02-01 10:22:00,
2013-02-01 11:27:00,48.0,37.2,29.81,SW,225,1.3,1.3,66,0.00,SCT,SKC,0.00,WeatherDisplay:10.37,2013-02-01 10:27:00,
2013-02-01 11:32:00,48.6,37.7,29.81,North,0,1.4,6.9,66,0.00,SCT,SKC,0.00,WeatherDisplay:10.37,2013-02-01 10:32:00,
2013-02-01 11:37:00,48.9,37.7,29.81,WSW,248,0.0,0.0,65,0.00,SCT,SKC,0.00,WeatherDisplay:10.37,2013-02-01 10:37:00,
2013-02-01 11:42:00,49.1,37.8,29.81,NNE,22,2.9,3.5,65,0.00,SCT,SKC,0.00,WeatherDisplay:10.37,2013-02-01 10:42:00,
2013-02-01 11:47:00,49.5,37.8,29.81,WNW,292,1.3,4.6,64,0.00,CLR,SKC,0.00,WeatherDisplay:10.37,2013-02-01 10:47:00,
2013-02-01 11:52:00,49.8,37.3,29.80,ENE,68,0.7,1.1,62,0.00,CLR,SKC,0.00,WeatherDisplay:10.37,2013-02-01 10:52:00,
2013-02-01 11:57:00,50.2,37.7,29.81,SW,225,2.6,3.5,62,0.00,CLR,SKC,0.00,WeatherDisplay:10.37,2013-02-01 10:57:00,
2013-02-01 12:02:00,50.5,37.2,29.81,NW,315,1.2,3.5,60,0.00,CLR,SKC,0.00,WeatherDisplay:10.37,2013-02-01 11:02:00,
2013-02-01 12:07:00,50.5,36.3,29.81,NNE,22,3.5,3.5,58,0.00,CLR,SKC,0.00,WeatherDisplay:10.37,2013-02-01 11:07:00,
2013-02-01 12:12:00,50.9,36.6,29.81,West,270,5.8,5.8,58,0.00,CLR,SKC,0.00,WeatherDisplay:10.37,2013-02-01 11:12:00,
2013-02-01 12:17:00,51.1,36.4,29.81,ENE,68,2.8,4.6,57,0.00,SCT,SKC,0.00,WeatherDisplay:10.37,2013-02-01 11:17:00,
2013-02-01 12:22:00,50.9,35.7,29.81,NNW,338,5.6,5.8,56,0.00,SCT,SKC,0.00,WeatherDisplay:10.37,2013-02-01 11:22:00,
2013-02-01 12:27:00,50.9,36.2,29.81,WNW,292,7.2,7.2,57,0.00,SCT,SKC,0.00,WeatherDisplay:10.37,2013-02-01 11:27:00,
2013-02-01 12:32:00,51.3,36.1,29.81,North,0,3.8,3.8,56,0.00,SCT,SKC,0.00,WeatherDisplay:10.37,2013-02-01 11:32:00,
2013-02-01 12:37:00,50.9,35.7,29.81,NNE,22,5.0,5.4,56,0.00,SCT,SKC,0.00,WeatherDisplay:10.37,2013-02-01 11:37:00,
2013-02-01 12:42:00,50.7,35.6,29.81,NNE,22,5.3,6.7,56,0.00,SCT,SKC,0.00,WeatherDisplay:10.37,2013-02-01 11:42:00,
2013-02-01 12:47:00,50.5,35.4,29.81,WNW,292,7.5,10.4,56,0.00,SCT,SKC,0.00,WeatherDisplay:10.37,2013-02-01 11:47:00,
2013-02-01 12:52:00,50.7,35.1,29.80,North,0,2.0,2.3,55,0.00,SCT,SKC,0.00,WeatherDisplay:10.37,2013-02-01 11:52:00,
2013-02-01 12:57:00,50.9,35.7,29.81,NNE,22,2.9,3.5,56,0.00,SCT,SKC,0.00,WeatherDisplay:10.37,2013-02-01 11:57:00,
2013-02-01 13:02:00,51.1,35.9,29.80,NW,315,7.1,10.4,56,0.00,BKN,SKC,0.00,WeatherDisplay:10.37,2013-02-01 12:02:00,
2013-02-01 13:08:00,51.4,36.3,29.80,NNW,338,1.8,2.3,56,0.00,BKN,SKC,0.00,WeatherDisplay:10.37,2013-02-01 12:08:00,
2013-02-01 13:13:00,51.4,35.8,29.79,West,270,3.2,8.1,55,0.00,BKN,SKC,0.00,WeatherDisplay:10.37,2013-02-01 12:13:00,
2013-02-01 13:18:00,51.3,35.6,29.80,North,0,2.7,2.7,55,0.00,BKN,SKC,0.00,WeatherDisplay:10.37,2013-02-01 12:18:00,
2013-02-01 13:23:00,51.1,35.5,29.79,NNW,338,6.3,6.9,55,0.00,BKN,SKC,0.00,WeatherDisplay:10.37,2013-02-01 12:23:00,
2013-02-01 13:28:00,50.9,35.3,29.79,NNW,338,2.5,5.8,55,0.00,BKN,SKC,0.00,WeatherDisplay:10.37,2013-02-01 12:28:00,
2013-02-01 13:33:00,50.9,34.8,29.79,NW,315,6.9,6.9,54,0.00,BKN,SKC,0.00,WeatherDisplay:10.37,2013-02-01 12:33:00,
2013-02-01 13:38:00,50.7,34.7,29.79,NW,315,4.4,7.4,54,0.00,BKN,SKC,0.00,WeatherDisplay:10.37,2013-02-01 12:38:00,
2013-02-01 13:43:00,50.7,35.1,29.79,North,0,4.0,6.9,55,0.00,BKN,SKC,0.00,WeatherDisplay:10.37,2013-02-01 12:43:00,
2013-02-01 13:48:00,50.5,35.0,29.79,NNE,22,3.1,3.5,55,0.00,BKN,SKC,0.00,WeatherDisplay:10.37,2013-02-01 12:48:00,
2013-02-01 13:53:00,50.5,35.4,29.79,NNE,22,4.3,5.8,56,0.00,BKN,SKC,0.00,WeatherDisplay:10.37,2013-02-01 12:53:00,
2013-02-01 13:58:00,50.5,35.4,29.79,NNE,22,0.1,0.0,56,0.00,BKN,SKC,0.00,WeatherDisplay:10.37,2013-02-01 12:58:00,
2013-02-01 14:03:00,50.5,35.4,29.79,West,270,2.9,8.1,56,0.00,BKN,SKC,0.00,WeatherDisplay:10.37,2013-02-01 13:03:00,
2013-02-01 14:08:00,50.5,35.4,29.78,NW,315,1.3,2.3,56,0.00,BKN,SKC,0.00,WeatherDisplay:10.37,2013-02-01 13:08:00,
2013-02-01 14:13:00,50.5,35.4,29.78,ESE,112,0.0,1.1,56,0.00,BKN,SKC,0.00,WeatherDisplay:10.37,2013-02-01 13:13:00,
2013-02-01 14:18:00,50.5,35.4,29.78,NNW,338,4.0,4.0,56,0.00,BKN,SKC,0.00,WeatherDisplay:10.37,2013-02-01 13:18:00,
2013-02-01 14:23:00,50.9,35.7,29.78,West,270,2.0,3.5,56,0.00,BKN,SKC,0.00,WeatherDisplay:10.37,2013-02-01 13:23:00,
2013-02-01 14:28:00,50.9,35.7,29.77,South,180,0.1,0.0,56,0.00,BKN,SKC,0.00,WeatherDisplay:10.37,2013-02-01 13:28:00,
2013-02-01 14:33:00,50.9,35.7,29.77,NE,45,1.6,3.5,56,0.00,BKN,SKC,0.00,WeatherDisplay:10.37,2013-02-01 13:33:00,
2013-02-01 14:38:00,50.9,35.7,29.77,NW,315,0.0,1.1,56,0.00,BKN,SKC,0.00,WeatherDisplay:10.37,2013-02-01 13:38:00,
2013-02-01 14:43:00,50.7,35.6,29.77,WNW,292,1.3,5.8,56,0.00,BKN,SKC,0.00,WeatherDisplay:10.37,2013-02-01 13:43:00,
2013-02-01 14:48:00,50.5,35.9,29.76,WNW,292,2.1,6.7,57,0.00,BKN,SKC,0.00,WeatherDisplay:10.37,2013-02-01 13:48:00,
2013-02-01 14:53:00,50.4,35.7,29.76,NNE,22,0.7,2.3,57,0.00,BKN,SKC,0.00,WeatherDisplay:10.37,2013-02-01 13:53:00,
2013-02-01 14:58:00,49.8,35.6,29.76,SSW,202,0.0,0.0,58,0.00,BKN,SKC,0.00,WeatherDisplay:10.37,2013-02-01 13:58:00,
2013-02-01 15:03:00,49.8,35.6,29.76,NW,315,1.3,2.2,58,0.00,BKN,SKC,0.00,WeatherDisplay:10.37,2013-02-01 14:03:00,
2013-02-01 15:08:00,49.8,35.6,29.76,ENE,68,0.1,0.0,58,0.00,BKN,SKC,0.00,WeatherDisplay:10.37,2013-02-01 14:08:00,
2013-02-01 15:13:00,49.6,35.9,29.75,North,8,0.0,1.0,59,0.00,BKN,SKC,0.00,WeatherDisplay:10.37,2013-02-01 14:13:00,
2013-02-01 15:18:00,49.6,35.9,29.75,SE,125,1.0,1.0,59,0.00,CLR,SKC,0.00,WeatherDisplay:10.37,2013-02-01 14:18:00,
2013-02-01 15:23:00,49.6,36.3,29.75,South,191,0.0,0.0,60,0.00,CLR,SKC,0.00,WeatherDisplay:10.37,2013-02-01 14:23:00,
2013-02-01 15:28:00,49.6,36.3,29.75,South,187,1.0,1.0,60,0.00,CLR,SKC,0.00,WeatherDisplay:10.37,2013-02-01 14:28:00,
2013-02-01 15:33:00,49.3,36.0,29.75,SSE,157,1.0,0.0,60,0.00,CLR,SKC,0.00,WeatherDisplay:10.37,2013-02-01 14:33:00,
2013-02-01 15:38:00,49.3,36.0,29.75,SSE,163,1.0,2.0,60,0.00,CLR,SKC,0.00,WeatherDisplay:10.37,2013-02-01 14:38:00,
2013-02-01 15:43:00,49.2,35.9,29.75,SSW,194,1.0,2.0,60,0.00,CLR,SKC,0.00,WeatherDisplay:10.37,2013-02-01 14:43:00,
2013-02-01 15:48:00,49.1,35.8,29.75,West,265,0.0,0.0,60,0.00,CLR,SKC,0.00,WeatherDisplay:10.37,2013-02-01 14:48:00,
2013-02-01 15:53:00,49.1,35.8,29.74,WSW,239,2.0,2.0,60,0.00,CLR,SKC,0.00,WeatherDisplay:10.37,2013-02-01 14:53:00,
2013-02-01 15:58:00,48.9,35.6,29.74,West,267,0.0,0.0,60,0.00,CLR,SKC,0.00,WeatherDisplay:10.37,2013-02-01 14:58:00,
2013-02-01 16:03:00,48.6,35.7,29.74,West,270,0.3,4.6,61,0.00,CLR,SKC,0.00,WeatherDisplay:10.37,2013-02-01 15:03:00,
2013-02-01 16:08:00,48.4,35.5,29.73,West,270,0.7,1.1,61,0.00,CLR,SKC,0.00,WeatherDisplay:10.37,2013-02-01 15:08:00,
2013-02-01 16:13:00,48.2,35.8,29.73,WNW,292,1.1,1.1,62,0.00,CLR,SKC,0.00,WeatherDisplay:10.37,2013-02-01 15:13:00,
2013-02-01 16:18:00,48.0,35.6,29.73,SE,135,0.7,2.3,62,0.00,CLR,SKC,0.00,WeatherDisplay:10.37,2013-02-01 15:18:00,
2013-02-01 16:23:00,47.5,35.1,29.73,WSW,248,0.2,2.3,62,0.00,CLR,SKC,0.00,WeatherDisplay:10.37,2013-02-01 15:23:00,
2013-02-01 16:28:00,47.5,35.1,29.73,WSW,248,0.0,0.0,62,0.00,CLR,SKC,0.00,WeatherDisplay:10.37,2013-02-01 15:28:00,
2013-02-01 16:33:00,46.9,35.0,29.73,ENE,68,0.7,1.1,63,0.00,CLR,SKC,0.00,WeatherDisplay:10.37,2013-02-01 15:33:00,
2013-02-01 16:38:00,46.6,34.7,29.72,East,90,0.0,0.0,63,0.00,CLR,SKC,0.00,WeatherDisplay:10.37,2013-02-01 15:38:00,
2013-02-01 16:43:00,46.0,34.5,29.72,SSE,158,0.0,0.0,64,0.00,CLR,SKC,0.00,WeatherDisplay:10.37,2013-02-01 15:43:00,
2013-02-01 16:48:00,45.3,34.2,29.72,WSW,248,0.0,0.0,65,0.00,CLR,SKC,0.00,WeatherDisplay:10.37,2013-02-01 15:48:00,
2013-02-01 16:53:00,44.8,34.1,29.71,WNW,292,0.0,0.0,66,0.00,CLR,SKC,0.00,WeatherDisplay:10.37,2013-02-01 15:53:00,
2013-02-01 16:58:00,44.8,34.1,29.71,WNW,292,0.0,0.0,66,0.00,CLR,SKC,0.00,WeatherDisplay:10.37,2013-02-01 15:58:00,
2013-02-01 17:03:00,43.5,33.7,29.72,West,270,0.0,0.0,68,0.00,CLR,SKC,0.00,WeatherDisplay:10.37,2013-02-01 16:03:00,
2013-02-01 17:08:00,43.5,34.0,29.72,NW,315,0.0,0.0,69,0.00,CLR,SKC,0.00,WeatherDisplay:10.37,2013-02-01 16:08:00,
2013-02-01 17:13:00,43.0,33.5,29.71,WNW,292,0.0,0.0,69,0.00,CLR,SKC,0.00,WeatherDisplay:10.37,2013-02-01 16:13:00,
2013-02-01 17:18:00,42.4,33.3,29.71,SE,135,0.0,0.0,70,0.00,CLR,SKC,0.00,WeatherDisplay:10.37,2013-02-01 16:18:00,
2013-02-01 17:23:00,42.4,33.3,29.71,SE,135,0.0,0.0,70,0.00,CLR,SKC,0.00,WeatherDisplay:10.37,2013-02-01 16:23:00,
2013-02-01 17:28:00,42.6,33.9,29.70,SSE,158,1.0,1.1,71,0.00,CLR,SKC,0.00,WeatherDisplay:10.37,2013-02-01 16:28:00,
2013-02-01 17:33:00,42.4,33.7,29.70,SSE,158,0.0,0.0,71,0.00,CLR,SKC,0.00,WeatherDisplay:10.37,2013-02-01 16:33:00,
2013-02-01 17:38:00,42.4,33.7,29.70,SW,225,0.0,0.0,71,0.00,CLR,SKC,0.00,WeatherDisplay:10.37,2013-02-01 16:38:00,
2013-02-01 17:43:00,41.9,33.9,29.70,WNW,292,0.0,0.0,73,0.00,CLR,SKC,0.00,WeatherDisplay:10.37,2013-02-01 16:43:00,
2013-02-01 17:48:00,41.7,33.7,29.69,WNW,292,0.0,0.0,73,0.00,CLR,SKC,0.00,WeatherDisplay:10.37,2013-02-01 16:48:00,
2013-02-01 17:53:00,41.7,33.7,29.69,West,270,0.0,0.0,73,0.00,CLR,SKC,0.00,WeatherDisplay:10.37,2013-02-01 16:53:00,
2013-02-01 17:58:00,42.1,34.0,29.69,South,180,0.0,0.0,73,0.00,CLR,SKC,0.00,WeatherDisplay:10.37,2013-02-01 16:58:00,
2013-02-01 18:03:00,42.4,34.4,29.69,SSE,158,0.0,0.0,73,0.00,CLR,SKC,0.00,WeatherDisplay:10.37,2013-02-01 17:03:00,
2013-02-01 18:08:00,42.6,34.2,29.69,SSW,202,0.0,0.0,72,0.00,CLR,SKC,0.00,WeatherDisplay:10.37,2013-02-01 17:08:00,
2013-02-01 18:13:00,42.4,34.4,29.69,WSW,248,0.0,0.0,73,0.00,CLR,SKC,0.00,WeatherDisplay:10.37,2013-02-01 17:13:00,
2013-02-01 18:18:00,41.7,34.0,29.68,WSW,248,0.0,0.0,74,0.00,CLR,SKC,0.00,WeatherDisplay:10.37,2013-02-01 17:18:00,
2013-02-01 18:23:00,41.5,34.2,29.68,NNW,338,0.0,0.0,75,0.00,CLR,SKC,0.00,WeatherDisplay:10.37,2013-02-01 17:23:00,
2013-02-01 18:28:00,41.5,34.2,29.67,NNW,338,0.0,0.0,75,0.00,CLR,SKC,0.00,WeatherDisplay:10.37,2013-02-01 17:28:00,
2013-02-01 18:33:00,41.5,34.2,29.67,NNW,338,0.0,0.0,75,0.00,CLR,SKC,0.00,WeatherDisplay:10.37,2013-02-01 17:33:00,
2013-02-01 18:38:00,41.4,34.0,29.67,NNW,338,0.0,0.0,75,0.00,CLR,SKC,0.00,WeatherDisplay:10.37,2013-02-01 17:38:00,
2013-02-01 18:43:00,41.2,34.2,29.67,WNW,292,0.0,0.0,76,0.00,CLR,SKC,0.00,WeatherDisplay:10.37,2013-02-01 17:43:00,
2013-02-01 18:48:00,41.2,34.2,29.66,WNW,292,0.0,0.0,76,0.00,CLR,SKC,0.00,WeatherDisplay:10.37,2013-02-01 17:48:00,
2013-02-01 18:53:00,41.2,34.2,29.66,WNW,292,0.0,0.0,76,0.00,CLR,SKC,0.00,WeatherDisplay:10.37,2013-02-01 17:53:00,
2013-02-01 19:00:00,41.2,34.5,29.65,WNW,292,0.0,0.0,77,0.00,CLR,SKC,0.00,WeatherDisplay:10.37,2013-02-01 18:00:00,
2013-02-01 19:05:00,41.2,34.5,29.65,WNW,292,0.0,0.0,77,0.00,CLR,SKC,0.00,WeatherDisplay:10.37,2013-02-01 18:05:00,
2013-02-01 19:10:00,41.2,34.5,29.65,SSW,202,0.0,0.0,77,0.00,CLR,SKC,0.00,WeatherDisplay:10.37,2013-02-01 18:10:00,
2013-02-01 19:15:00,41.4,34.7,29.65,South,180,0.0,0.0,77,0.00,CLR,SKC,0.00,WeatherDisplay:10.37,2013-02-01 18:15:00,
2013-02-01 19:20:00,41.7,35.0,29.64,South,180,0.0,0.0,77,0.00,CLR,SKC,0.00,WeatherDisplay:10.37,2013-02-01 18:20:00,
2013-02-01 19:25:00,42.6,35.6,29.64,WNW,292,0.0,0.0,76,0.00,CLR,SKC,0.00,WeatherDisplay:10.37,2013-02-01 18:25:00,
2013-02-01 19:30:00,43.0,35.6,29.65,SSW,202,1.3,1.3,75,0.00,CLR,SKC,0.00,WeatherDisplay:10.37,2013-02-01 18:30:00,
2013-02-01 19:35:00,43.5,35.8,29.64,West,270,0.0,0.9,74,0.00,CLR,SKC,0.00,WeatherDisplay:10.37,2013-02-01 18:35:00,
2013-02-01 19:40:00,43.9,36.1,29.64,West,270,0.0,0.0,74,0.00,CLR,SKC,0.00,WeatherDisplay:10.37,2013-02-01 18:40:00,
2013-02-01 19:45:00,44.1,36.3,29.63,WNW,292,0.0,0.0,74,0.00,CLR,SKC,0.00,WeatherDisplay:10.37,2013-02-01 18:45:00,
2013-02-01 19:50:00,44.2,36.1,29.63,SW,225,0.0,0.0,73,0.00,CLR,SKC,0.00,WeatherDisplay:10.37,2013-02-01 18:50:00,
2013-02-01 19:55:00,44.2,36.1,29.62,WNW,292,0.0,0.0,73,0.00,CLR,SKC,0.00,WeatherDisplay:10.37,2013-02-01 18:55:00,
2013-02-01 20:00:00,43.9,35.8,29.62,WNW,292,0.0,0.0,73,0.00,CLR,SKC,0.00,WeatherDisplay:10.37,2013-02-01 19:00:00,
2013-02-01 20:05:00,43.9,35.8,29.62,SSE,158,0.0,0.0,73,0.00,CLR,SKC,0.00,WeatherDisplay:10.37,2013-02-01 19:05:00,
2013-02-01 20:10:00,43.9,36.1,29.61,North,0,0.0,0.0,74,0.00,CLR,SKC,0.00,WeatherDisplay:10.37,2013-02-01 19:10:00,
2013-02-01 20:15:00,43.9,36.1,29.61,South,180,0.0,0.0,74,0.00,CLR,SKC,0.00,WeatherDisplay:10.37,2013-02-01 19:15:00,
2013-02-01 20:20:00,43.7,36.0,29.61,ENE,68,0.0,0.0,74,0.00,CLR,SKC,0.00,WeatherDisplay:10.37,2013-02-01 19:20:00,
2013-02-01 20:25:00,43.5,35.8,29.61,SSE,158,0.0,0.0,74,0.00,CLR,SKC,0.00,WeatherDisplay:10.37,2013-02-01 19:25:00,
2013-02-01 20:30:00,43.3,35.6,29.60,NNW,338,0.0,0.0,74,0.00,CLR,SKC,0.00,WeatherDisplay:10.37,2013-02-01 19:30:00,
2013-02-01 20:35:00,43.0,35.6,29.60,ENE,68,0.0,0.0,75,0.00,CLR,SKC,0.00,WeatherDisplay:10.37,2013-02-01 19:35:00,
2013-02-01 20:40:00,43.0,35.6,29.60,WNW,292,0.0,0.0,75,0.00,CLR,SKC,0.00,WeatherDisplay:10.37,2013-02-01 19:40:00,
2013-02-01 20:45:00,42.6,35.6,29.59,NW,315,0.0,0.0,76,0.00,CLR,SKC,0.00,WeatherDisplay:10.37,2013-02-01 19:45:00,
2013-02-01 20:50:00,42.6,35.6,29.59,NW,315,0.0,0.0,76,0.00,CLR,SKC,0.00,WeatherDisplay:10.37,2013-02-01 19:50:00,
2013-02-01 20:55:00,42.6,35.6,29.59,South,180,0.0,0.0,76,0.00,CLR,SKC,0.00,WeatherDisplay:10.37,2013-02-01 19:55:00,
2013-02-01 21:00:00,42.6,35.6,29.59,ENE,68,0.0,0.0,76,0.00,CLR,SKC,0.00,WeatherDisplay:10.37,2013-02-01 20:00:00,
2013-02-01 21:05:00,43.3,36.3,29.59,South,180,1.1,1.1,76,0.00,CLR,SKC,0.00,WeatherDisplay:10.37,2013-02-01 20:05:00,
2013-02-01 21:10:00,43.5,36.5,29.59,ENE,68,1.3,1.3,76,0.00,CLR,SKC,0.00,WeatherDisplay:10.37,2013-02-01 20:10:00,
2013-02-01 21:15:00,43.9,36.5,29.58,SSE,158,0.0,0.0,75,0.00,CLR,SKC,0.00,WeatherDisplay:10.37,2013-02-01 20:15:00,
2013-02-01 21:20:00,43.9,36.5,29.58,East,90,0.0,0.0,75,0.00,CLR,SKC,0.00,WeatherDisplay:10.37,2013-02-01 20:20:00,
2013-02-01 21:25:00,43.9,36.5,29.58,SSE,158,0.0,0.0,75,0.00,CLR,SKC,0.00,WeatherDisplay:10.37,2013-02-01 20:25:00,
2013-02-01 21:30:00,43.5,36.1,29.58,SSE,158,0.9,1.1,75,0.00,CLR,SKC,0.00,WeatherDisplay:10.37,2013-02-01 20:30:00,
2013-02-01 21:35:00,43.7,36.6,29.57,ESE,112,0.0,0.0,76,0.00,CLR,SKC,0.00,WeatherDisplay:10.37,2013-02-01 20:35:00,
2013-02-01 21:40:00,43.7,36.6,29.57,SSE,158,0.0,0.0,76,0.00,CLR,SKC,0.00,WeatherDisplay:10.37,2013-02-01 20:40:00,
2013-02-01 21:45:00,43.7,36.6,29.56,East,90,0.0,0.0,76,0.00,CLR,SKC,0.00,WeatherDisplay:10.37,2013-02-01 20:45:00,
2013-02-01 21:50:00,43.7,36.6,29.56,SE,135,0.0,0.0,76,0.00,CLR,SKC,0.00,WeatherDisplay:10.37,2013-02-01 20:50:00,
2013-02-01 21:55:00,43.5,36.5,29.56,ENE,68,0.0,0.0,76,0.00,CLR,SKC,0.00,WeatherDisplay:10.37,2013-02-01 20:55:00,
2013-02-01 22:00:00,43.5,36.5,29.55,East,90,0.7,2.3,76,0.00,CLR,SKC,0.00,WeatherDisplay:10.37,2013-02-01 21:00:00,
2013-02-01 22:05:00,43.7,36.6,29.55,East,90,0.0,2.0,76,0.00,CLR,SKC,0.00,WeatherDisplay:10.37,2013-02-01 21:05:00,
2013-02-01 22:10:00,43.7,36.6,29.55,North,0,0.9,1.1,76,0.00,CLR,SKC,0.00,WeatherDisplay:10.37,2013-02-01 21:10:00,
2013-02-01 22:15:00,44.2,37.2,29.54,ENE,68,0.9,2.3,76,0.00,CLR,SKC,0.00,WeatherDisplay:10.37,2013-02-01 21:15:00,
2013-02-01 22:20:00,44.2,36.8,29.54,SE,135,0.0,0.0,75,0.00,BKN,SKC,0.00,WeatherDisplay:10.37,2013-02-01 21:20:00,
2013-02-01 22:25:00,44.2,36.8,29.54,East,90,2.2,3.5,75,0.00,BKN,SKC,0.00,WeatherDisplay:10.37,2013-02-01 21:25:00,
2013-02-01 22:30:00,44.2,36.8,29.53,South,180,1.1,4.0,75,0.00,BKN,SKC,0.00,WeatherDisplay:10.37,2013-02-01 21:30:00,
2013-02-01 22:35:00,44.2,36.8,29.53,SE,135,1.1,1.1,75,0.00,BKN,SKC,0.00,WeatherDisplay:10.37,2013-02-01 21:35:00,
2013-02-01 22:40:00,44.2,37.2,29.52,SSE,158,5.8,5.8,76,0.00,BKN,SKC,0.00,WeatherDisplay:10.37,2013-02-01 21:40:00,
2013-02-01 22:46:00,44.1,37.0,29.52,ESE,112,3.4,4.6,76,0.00,BKN,SKC,0.00,WeatherDisplay:10.37,2013-02-01 21:46:00,
2013-02-01 22:51:00,43.9,36.8,29.51,SSW,202,1.6,2.3,76,0.00,BKN,SKC,0.00,WeatherDisplay:10.37,2013-02-01 21:51:00,
2013-02-01 22:56:00,43.9,36.8,29.51,ENE,68,0.0,0.0,76,0.00,BKN,SKC,0.00,WeatherDisplay:10.37,2013-02-01 21:56:00,
2013-02-01 23:01:00,43.9,36.8,29.51,SE,135,2.9,5.8,76,0.00,BKN,SKC,0.00,WeatherDisplay:10.37,2013-02-01 22:01:00,
2013-02-01 23:06:00,43.9,36.8,29.51,South,180,1.1,1.6,76,0.00,BKN,SKC,0.00,WeatherDisplay:10.37,2013-02-01 22:06:00,
2013-02-01 23:11:00,43.9,36.5,29.51,SSE,158,1.3,1.3,75,0.00,BKN,SKC,0.00,WeatherDisplay:10.37,2013-02-01 22:11:00,
2013-02-01 23:16:00,44.1,36.6,29.51,ESE,112,0.0,1.1,75,0.00,BKN,SKC,0.00,WeatherDisplay:10.37,2013-02-01 22:16:00,
2013-02-01 23:21:00,44.2,36.5,29.50,SSW,202,0.1,2.3,74,0.00,-RA,SKC,0.00,WeatherDisplay:10.37,2013-02-01 22:21:00,
2013-02-01 23:26:00,44.2,36.1,29.50,SSE,158,0.9,1.1,73,0.00,-RA,SKC,0.00,WeatherDisplay:10.37,2013-02-01 22:26:00,
2013-02-01 23:31:00,44.2,36.1,29.49,South,180,0.0,0.0,73,0.00,-RA,SKC,0.00,WeatherDisplay:10.37,2013-02-01 22:31:00,
2013-02-01 23:36:00,44.2,36.1,29.48,SSW,202,3.2,3.2,73,0.00,-RA,SKC,0.00,WeatherDisplay:10.37,2013-02-01 22:36:00,
2013-02-01 23:41:00,44.1,36.3,29.48,SE,135,0.0,0.0,74,0.00,-RA,SKC,0.00,WeatherDisplay:10.37,2013-02-01 22:41:00,
2013-02-01 23:46:00,43.9,36.1,29.48,ESE,112,0.0,0.0,74,0.00,-RA,SKC,0.00,WeatherDisplay:10.37,2013-02-01 22:46:00,
2013-02-01 23:51:00,43.7,36.6,29.48,SW,225,0.9,1.1,76,0.00,BKN,SKC,0.00,WeatherDisplay:10.37,2013-02-01 22:51:00,
2013-02-01 23:56:00,43.5,36.8,29.47,East,90,2.5,2.5,77,0.00,BKN,SKC,0.00,WeatherDisplay:10.37,2013-02-01 22:56:00,